Location: Unspecified
(0.0000°N, 0.0000°E)
Time: 08:45:13
(UTC+00:00)

deb Midas III - Pass Details

Date: 15 March 2026
Orbit: 3314 x 3545 km, 91.1° (Epoch: 19 April)

Event Time Altitude Azimuth Distance (km) Brightness Sun altitude
Rises 03:01:39 0° 191° (S) 7,610 ? -46.8°
Reaches altitude 10° 03:06:23 10° 197° (SSW) 6,573 ? -45.6°
Enters shadow 03:12:06 24° 210° (SSW) 5,462 ? -44.2°
Exits shadow 03:38:46 10° 328° (NNW) 6,412 ? -37.5°
Drops below altitude 10° 03:39:01 10° 328° (NNW) 6,461 ? -37.5°
Sets 03:43:35 0° 335° (NNW) 7,427 ? -36.3°
